Regional Weather Roundup
Issued by NWS

Home | Current Version | Previous Version | Graphics & Text | Print | Product List | Glossary On
Versions: 1 2 3 4 5 6 7 8 9 10 11 12 13 14 15 16 17 18 19 20 21 22 23 24 25 26 27 28 29 30 31 32 33 34 35 36 37 38 39 40 41 42 43 44 45 46 47 48 49 50
000
ASUS43 KOAX 180910
RWRNE

WEATHER ROUNDUP FOR NEBRASKA
NATIONAL WEATHER SERVICE OMAHA NE
400 AM CDT SAT APR 18 2015

NOTES: SATELLITE DATA IS BEING USED TO AUGMENT CLOUD COVER ABOVE
       12000 FEET.
       "FAIR" INDICATES FEW OR NO CLOUDS BELOW 12,000 FEET WITH NO
       SIGNIFICANT WEATHER AND/OR OBSTRUCTIONS TO VISIBILITY.

  * THESE STATIONS DO NOT REPORT WEATHER SUCH AS RAIN...SNOW OR FOG.

NEZ001>004-019>022-054>056-181000-
NEBRASKA PANHANDLE

CITY           SKY/WX    TMP DP  RH WIND       PRES   REMARKS
SCOTTSBLUFF    LGT RAIN  42  42 100 W8        29.98F
ALLIANCE       LGT RAIN  45  44  97 NE6       29.98F
CHADRON        LGT RAIN  47  46  97 N6        30.00F FOG
KIMBALL        RAIN      40  39  95 N8        29.97F WCI  35
SIDNEY         LGT RAIN  41  39  93 NW16      29.97F
$$

NEZ057>060-069>072-079>082-181000-
SOUTHWEST NEBRASKA

CITY           SKY/WX    TMP DP  RH WIND       PRES   REMARKS
NORTH PLATTE   RAIN      50  49  96 SW7       29.98R
IMPERIAL       CLOUDY    49  45  86 NW7       29.93F
LEXINGTON      LGT RAIN  55  53  94 CALM      29.94F
MCCOOK         CLOUDY    51  48  89 N10       29.91F
OGALLALA       LGT RAIN  49  48  99 CALM      29.97R
$$

NEZ005>010-023>029-035>040-094-181000-
NORTH CENTRAL NEBRASKA

CITY           SKY/WX    TMP DP  RH WIND       PRES   REMARKS
VALENTINE      CLOUDY    51  46  83 NE10      29.98F
AINSWORTH      LGT RAIN  52  51  95 NE9       29.98F
BROKEN BOW     TSTM      54  51  90 SW14      29.95R FOG
O`NEILL        CLOUDY    54  49  83 N6        29.97F
ORD            CLOUDY    55  50  83 NE6       29.92F
THEDFORD       TSTM      50  48  93 NW9       29.98S
$$

NEZ041-046>049-061>064-073>077-083>087-181000-
SOUTH CENTRAL NEBRASKA

CITY           SKY/WX    TMP DP  RH WIND       PRES   REMARKS
GRAND ISLAND   CLOUDY    57  53  86 E12       29.92F
AURORA         CLOUDY    57  55  95 E9        29.92F
HASTINGS       LGT RAIN  57  55  93 SE10      29.91F
HEBRON         CLOUDY    58  55  89 CALM      29.91F
HOLDREGE       CLOUDY    54  52  93 W8        29.94F
KEARNEY *      CLOUDY    55  52  88 SW9G28    29.94R THUNDER
YORK           CLOUDY    57  55  94 E8        29.93F
$$

NEZ011>018-030>034-042>045-181000-
NORTHEAST NEBRASKA

CITY           SKY/WX    TMP DP  RH WIND       PRES   REMARKS
ALBION         CLOUDY    58  49  73 E9        29.95F
BLAIR          CLOUDY    61  52  71 CALM      29.96S
COLUMBUS *     CLOUDY    59  48  67 E6        29.96F
FREMONT        CLOUDY    62  55  80 CALM      29.96F
TEKAMAH        CLOUDY    60  50  69 NW7       29.96F
WAYNE          CLOUDY    58  52  80 E7        29.98S
$$

NEZ050>053-065>068-078-088>093-181000-
SOUTHEAST NEBRASKA

CITY           SKY/WX    TMP DP  RH WIND       PRES   REMARKS
LINCOLN        CLOUDY    57  54  89 CALM      29.95F
OMAHA EPPLEY   CLOUDY    64  55  72 SE6       29.95F
BEATRICE       CLOUDY    59  55  85 E3        29.93F
FALLS CITY     CLOUDY    59  55  87 NE3       29.93F
NEBRASKA CITY  CLOUDY    61  53  74 SE5       29.95F
PLATTSMOUTH    CLOUDY    61  53  75 SE5       29.96S
$$

NEZ044-045-051>053-067-181000-
OMAHA AREA

CITY           SKY/WX    TMP DP  RH WIND       PRES   REMARKS
OMAHA EPPLEY   CLOUDY    64  55  72 SE6       29.95F
BLAIR          CLOUDY    61  52  71 CALM      29.96S
FREMONT        CLOUDY    62  55  80 CALM      29.96F
MILLARD        CLOUDY    62  56  81 CALM      29.94F
OFFUTT AFB     CLOUDY    59  56  89 SE2       29.94F
PLATTSMOUTH    CLOUDY    61  53  75 SE5       29.96S
WAHOO          CLOUDY    60  55  82 CALM      29.95F
$$



USA.gov is the U.S. government's official web portal to all federal, state and local government web resources and services.